Location: Ch�risy
(50.2331°N, 2.9131°E)
Time: 19:53:52
(UTC+00:00)

Cosmos 1626 - Pass Details

Date: 17 January 2021
Orbit: 490 x 494 km, 82.5° (Epoch: 27 February)

Event Time Altitude Azimuth Distance (km) Brightness Sun altitude
Rises 17:43:59 0° 194° (SSW) 2,566 6.2 -13.4°
Reaches altitude 10° 17:46:06 10° 197° (SSW) 1,689 5.2 -13.7°
Maximum altitude 17:49:47 70° 281° (WNW) 531 2.4 -14.3°
Drops below altitude 10° 17:53:30 10° 6° (N) 1,702 4.6 -14.9°
Enters shadow 17:55:01 - 8° (N) 2,333 5.3 -15.1°
